Flag for U.S.A. Weather past 2 weeks in Cumberland, Maryland, U.S.A.

Now
40 °F

Clear.


Feels Like: 38 °F
Forecast: 33 / 58 °F
Wind: 3 mph from Northeast

Location: Eastern West Virginia Regional Airport


UV Index: 5 (Moderate)

Visibility: 10 mi


Pressure: 30.48 "Hg

Humidity: 38%

Dew point: 16 °F

Location of CumberlandLocation

Historic Weather in Cumberland

°F

Cumberland temperature yesterday

Maximum temperature yesterday: 68 °F (at 12:53 AM)
Minimum temperature yesterday: 35 °F (at 10:53 PM)
Average temperature yesterday: 52 °F

Past Weeks' High & Low Weather Summary

 TemperatureHumidityPressure
High84 °F (Apr 13, 3:53 PM)96% (Apr 12, 4:01 AM)30.48 "Hg (Apr 12, 4:01 AM)
Low29 °F (Apr 6, 6:53 AM)18% (Apr 10, 4:53 PM)29.47 "Hg (Apr 8, 5:53 AM)
Average54 °F55%29.97 "Hg
* Reported Apr 1 7:53 PM — Apr 16 7:53 PM, Cumberland, Weather by CustomWeather, © 2014

Note: Actual official high and low records may vary slightly from our data, if they occured in-between our weather recording intervals... More about our weather records

Advertising

Historic Weather Conditions — Data for Previous 24 hours

 ConditionsComfort  
Time TempWeatherWind HumidityBarometerVisibility
7:53 PM
Apr 16
43 °FSunny.3 mph31%30.46 "Hg10 mi
6:53 PM46 °FSunny.8 mph26%30.46 "Hg10 mi
5:53 PM48 °FSunny.6 mph23%30.45 "Hg10 mi
4:53 PM48 °FSunny.10 mph24%30.44 "Hg10 mi
3:53 PM48 °FSunny.N/A23%30.45 "Hg10 mi
2:53 PM45 °FSunny.No wind26%30.46 "Hg10 mi
1:53 PM44 °FSunny.10 mph27%30.47 "Hg10 mi
12:53 PM42 °FSunny.9 mph29%30.48 "Hg10 mi
11:53 AM39 °FSunny.8 mph31%30.48 "Hg10 mi
10:53 AM37 °FSunny.8 mph36%30.47 "Hg10 mi
9:53 AM35 °FSunny.12 mph38%30.45 "Hg10 mi
8:53 AM33 °FSunny.12 mph40%30.43 "Hg10 mi
7:53 AM31 °FSunny.16 mph43%30.38 "Hg10 mi
6:53 AM30 °FClear.14 mph43%30.35 "Hg10 mi
5:53 AM31 °FClear.15 mph47%30.31 "Hg10 mi
4:53 AM31 °FPassing clouds.15 mph49%30.27 "Hg10 mi
3:53 AM32 °FOvercast.12 mph50%30.22 "Hg10 mi
2:53 AM33 °FOvercast.14 mph49%30.20 "Hg10 mi
1:53 AM33 °FOvercast.17 mph43%30.17 "Hg10 mi
12:53 AM34 °FOvercast.16 mph46%30.15 "Hg10 mi
11:53 PM
Apr 15
35 °FOvercast.15 mph48%30.10 "Hg10 mi
10:53 PM35 °FOvercast.15 mph50%30.06 "Hg10 mi
9:53 PM37 °FPassing clouds.18 mph52%30.03 "Hg10 mi
Weather by CustomWeather, © 2014

See weather overview